Regional Weather Roundup
Issued by NWS

Home | Current Version | Previous Version | Text Only | Print | Product List | Glossary On
Versions: 1 2 3 4 5 6 7 8 9 10 11 12 13 14 15 16 17 18 19 20 21 22 23 24 25 26 27 28 29 30 31 32 33 34 35 36 37 38 39 40 41 42 43 44 45 46 47 48 49 50
000
ASUS42 KTBW 222217
RWRFL
FLORIDA REGIONAL WEATHER ROUNDUP
NATIONAL WEATHER SERVICE TAMPA BAY RUSKIN FL
600 PM EDT FRI MAY 22 2015

NOTE: "FAIR" INDICATES FEW OR NO CLOUDS BELOW 12,000 FEET WITH NO
SIGNIFICANT WEATHER AND/OR OBSTRUCTIONS TO VISIBILITY.


FLZ001>010-012>015-112-114-115-222300-
PANHANDLE FLORIDA

CITY           SKY/WX    TMP DP  RH WIND       PRES   REMARKS
PENSACOLA      SUNNY     84  58  40 VRB3      30.13S
PENSACOLA NAS  MOSUNNY   83  63  50 S7        30.13S
MILTON NAS     MOSUNNY   84  58  40 N6        30.14
CRESTVIEW      SUNNY     85  55  35 VRB5      30.15S
DUKE FIELD     FAIR      84  55  36 VRB5      30.12F HAZE
VALPARAISO     MOSUNNY   84  59  42 SW9       30.12S
MARY ESTHER    SUNNY     80  58  46 SW6       30.12R
TRI COUNTY     FAIR      83  52  34 N6        30.14S
PANAMA CITY    FAIR      85  55  35 W5        30.12S
TYNDALL AFB    MOSUNNY   88  56  34 NW9       30.11S
APALACHICOLA   SUNNY     87  69  54 SW10      30.11S

STATION/POSITION SKY/WX   TEMP    WIND        PRES    WAVE   SWELL
                          AIR SEA DIR/SP/G            HT/PER HT/PER
                          (F)     (DEG/KT/KT) (MB)    (FT/S) (FT/S)
30.1N   87.6W              76 81  130/  2/  2 1019.8F   1/ 4
29.2N   88.2W              76 82  100/ 10/ 12 1020.7F   2/ 5   2/ 5
28.8N   86.0W              77 82   70/  6/  8 1020.4    2/ 4   2/ 4
PANAMA CITY BEAC           78 78  240/  7/  8 1019.9F
CAPE SAN BLAS    NOT AVBL
TOWER C                    77     210/  5/  6 1019.6F
28.5N   84.5W              78 81   50/  8/ 10 1019.6R   1/ 4

$$
FLZ011-016>038-118-127-128-134-139-239-222300-
NORTH FLORIDA

CITY           SKY/WX    TMP DP  RH WIND       PRES   REMARKS
MARIANNA       SUNNY     84  52  33 N5        30.12S
TALLAHASSEE    PTSUNNY   87  53  31 VRB6      30.11F
PERRY          MOSUNNY   86  56  35 NW6       30.11S
CROSS CITY       N/A     89  62  40 NW8       30.08F
LAKE CITY      FAIR      84  59  42 NW5       30.10S
GAINESVILLE    SUNNY     88  62  41 N13       30.09R
MAYPORT NAS    PTSUNNY   77  67  71 NE15G23   30.13S
JACKSONVILLE   PTSUNNY   76  65  68 E16       30.12S
JAX NAS        PTSUNNY   82  65  56 NE15      30.12S
JAX CRAIG      PTSUNNY   76  65  68 NE14G21   30.13S
JAX CECIL      SUNNY     79  66  65 NE6       30.11R
FERNANDINA BEA FAIR      81  68  65 NE14G22   30.13S
ST AUGUSTINE   MOSUNNY   79  69  71 NE16      30.13S

STATION/POSITION SKY/WX   TEMP    WIND        PRES    WAVE   SWELL
                          AIR SEA DIR/SP/G            HT/PER HT/PER
                          (F)     (DEG/KT/KT) (MB)    (FT/S) (FT/S)
SHELL POINT                82     180/  8/ 10   N/A
KEATON BEACH               82     280/  6/  7 1019.4S
CEDAR KEY                  85     320/  7/ 10 1019.2R
FERNANDINA                 76 79   50/  7/ 11 1020.0R
30.7N   81.3W                 78                N/A     3/ 4
MAYPORT                    75 76   40/ 16/ 18 1020.4S
31.4N   80.9W              72 76   60/ 17/ 21 1021.0F   5/ 6   2/13
ST AUGUSTINE               74 77   20/ 15/ 17 1020.6S

$$
FLZ040-043>046-052-053-057-058-063-144-222300-
INTERIOR CENTRAL FLORIDA

CITY           SKY/WX    TMP DP  RH WIND       PRES   REMARKS
OCALA          MOSUNNY   91  64  40 N7        30.07S
THE VILLAGES     N/A     91  70  49 NW6       29.96F HX  97
LEESBURG       MOSUNNY   94  63  35 N10       30.06F HX  95
SANFORD        MOSUNNY   86  69  56 E15       30.07F
ORLANDO EXEC   MOSUNNY   87  72  60 E15       30.06F
ORLANDO INTL   MOSUNNY   88  74  63 E17       30.06S HX  96
KISSIMMEE      MOSUNNY   93  61  33 N9        30.05F
WINTER HAVEN   SUNNY     94  65  38 N10       30.05F HX  96
LAKELAND       MOSUNNY   90  68  48 N16       30.05F
BARTOW         FAIR      91  64  40 NE7       30.05F
OKEECHOBEE     CLOUDY    79  70  73 CALM      30.07F

$$
FLZ041-047-054-059-064-141-147-222300-
EAST CENTRAL FLORIDA

CITY           SKY/WX    TMP DP  RH WIND       PRES   REMARKS
ORMOND BEACH   SUNNY     77  68  73 NE12      30.11R
DAYTONA BEACH  MOSUNNY   80  68  66 NE15      30.10F
DELAND           N/A     84  68  58 NE13      30.10S
NEW SMYRNA BEA SUNNY     81  68  65 NE13G18   30.13S
JFK SPACE CTR  SUNNY     80  69  68 NE8       30.08F
TITUSVILLE     MOSUNNY   82  73  74 NE17      30.09F
CAPE CANAVERAL SUNNY     82  71  71 NE10      30.07F
PATRICK AFB    MOSUNNY   82  72  72 NE16      30.07F
MELBOURNE      MOSUNNY   83  72  69 NE16      30.07F
VERO BEACH     PTSUNNY   85  74  69 NE12      30.08F
FT PIERCE      CLOUDY    83  75  77 E6        30.08F
STUART         PTSUNNY   81  66  61 CALM      30.08

STATION/POSITION SKY/WX   TEMP    WIND        PRES    WAVE   SWELL
                          AIR SEA DIR/SP/G            HT/PER HT/PER
                          (F)     (DEG/KT/KT) (MB)    (FT/S) (FT/S)
28.5N   80.2W              79 81   20/ 12/ 14 1019.3S
28.9N   78.5W              81 81  330/  8/ 10 1019.0R
TRIDENT PIER               83 82   30/ 11/ 13 1019.5R
28.4N   80.5W                 82                N/A     2/ 3
27.5N   80.2W                 81                N/A     1/ 3

$$
FLZ050-056-061-142-242-148-248-149-249-151-251-155-255-
160-260-222300-
WEST CENTRAL FLORIDA

CITY           SKY/WX    TMP DP  RH WIND       PRES   REMARKS
CRYSTAL RIVER  FAIR      86  70  58 W7        30.07S
INVERNESS      FAIR      91  72  52 W3        30.06S HX  98
BROOKSVILLE    SUNNY     90  67  46 NW12      30.06F
CLEARWATER     SUNNY     88  70  55 NW15      30.05F
TAMPA INTL     MOSUNNY   90  66  45 N15       30.05F
TAMPA EXEC     SUNNY     91  64  40 NW8       30.05F
PLANT CITY     MOSUNNY   90  72  55 N7        30.07S HX  96
MACDILL AFB    SUNNY     89  71  54 N12       30.05F HX  95
PETER O KNIGHT SUNNY     91  66  43 N7        30.05S
ST PETERSBURG  SUNNY     90  66  45 N12       30.03F
SARASOTA       SUNNY     88  68  51 NW14      30.04F
VENICE         FAIR      86  73  66 NW15      30.07S

STATION/POSITION SKY/WX   TEMP    WIND        PRES    WAVE   SWELL
                          AIR SEA DIR/SP/G            HT/PER HT/PER
                          (F)     (DEG/KT/KT) (MB)    (FT/S) (FT/S)
CEDAR KEY                  85     320/  7/ 10 1019.2R
28.5N   84.5W              78 81   50/  8/ 10 1019.6R   1/ 4
27.3N   84.2W                 83                N/A     1/ 4
CLEARWATER BEACH           82 86  330/ 13/ 15 1018.6F
MIDDLE TAMPA BAY           88     360/ 11/ 13 1018.0F
VENICE                     84 86  310/ 12/ 14 1017.7F

$$
FLZ066-069-070-075>078-162-262-165-265-222300-
SOUTHWEST FLORIDA AND KEYS

CITY           SKY/WX    TMP DP  RH WIND       PRES   REMARKS
PUNTA GORDA    MOSUNNY   89  70  53 NW9       30.07S
FT MYERS       CLOUDY    79  68  69 E20G28    30.10R THUNDER
SOUTHWEST INTL CLOUDY    78  70  76 E12       30.10R
NAPLES         PTSUNNY   86  73  65 NW9       30.09R
MARCO ISLAND   MOCLDY    88  70  55 NW7       30.09R
IMMOKALEE      PTCLDY   N/A N/A N/A SE16      30.12R
MARATHON       SUNNY     86  76  71 VRB3      30.07R HX  96
KEY WEST NAS   MOSUNNY   86  72  62 N9        30.06S
KEY WEST INTL  MOSUNNY   86  74  67 N8        30.07S

STATION/POSITION SKY/WX   TEMP    WIND        PRES    WAVE   SWELL
                          AIR SEA DIR/SP/G            HT/PER HT/PER
                          (F)     (DEG/KT/KT) (MB)    (FT/S) (FT/S)
VENICE                     84 86  310/ 12/ 14 1017.7F
NAPLES                     83 87  300/ 13/ 14 1017.6F
26.0N   85.6W              82 84   40/  6/  8 1018.9F   1
DRY TORTUGAS               82      20/  5/  6 1018.2F
NW FL BAY                  84     250/  8/ 10 1018.1
SAND KEY                   83     360/  6/  7 1018.0F
SOMBRERO KEY               83     250/  1/  2 1018.8R
LONG KEY                   85 89  300/  2/  3 1019.3R
MOLASSES REEF              82 83  270/  4/  5 1019.0R

$$
FLZ067-068-071>074-168-172>174-222300-
SOUTHEAST FLORIDA

CITY           SKY/WX    TMP DP  RH WIND       PRES   REMARKS
W PALM BEACH   CLOUDY    83  74  74 N3        30.10R
FT LAUDER-EXEC CLOUDY    84  74  71 E7        30.09R
FT LAUDERDALE  CLOUDY    84  74  71 SE6       30.09R
POMPANO BEACH  CLOUDY    84  73  69 E5        30.09R
PEMBROKE PINES CLOUDY    84  71  65 S3        30.11R
OPA LOCKA      CLOUDY    77  67  71 W15       30.12R
MIAMI          CLOUDY    76  66  71 W16G28    30.12R THUNDER
WEST KENDALL   CLOUDY    75  67  76 N20G28    30.13R
HOMESTEAD      NOT AVBL

STATION/POSITION SKY/WX   TEMP    WIND        PRES    WAVE   SWELL
                          AIR SEA DIR/SP/G            HT/PER HT/PER
                          (F)     (DEG/KT/KT) (MB)    (FT/S) (FT/S)
PORT EVERGLADES            83     160/  4/  6 1019.0R
VIRGINIA KEY               83 86  150/  8/ 13 1017.4F
LAKE WORTH                 81 84   40/ 10/ 11 1017.4F



USA.gov is the U.S. government's official web portal to all federal, state and local government web resources and services.